Lubbock, TX

2:43 AM CDT on July 24, 2019 (GMT -0500)
Lubbock International

Weather History for KLBB - May, 2019

Change the Weather History Date:

Wednesday, May 22, 2019

  Actual Average Record
Temperature  
Mean Temperature 76 °F 72 °F  
Max Temperature 91 °F 85 °F 105 °F (1996)
Min Temperature 59 °F 58 °F 40 °F (1931)
Degree Days  
Heating Degree Days 0 1  
Month to date heating degree days 52 35  
Since 1 July heating degree days 3449 3372  
Cooling Degree Days 10 7  
Month to date cooling degree days 90 113  
Year to date cooling degree days 153 169  
Growing Degree Days 26 (Base 50)    
Moisture  
Dew Point 33 °F    
Average Humidity 26    
Maximum Humidity 64    
Minimum Humidity 7    
Precipitation  
Precipitation 0.00 in 0.09 in 1.47 in (1985)
Month to date precipitation 0.73 1.47  
Year to date precipitation 3.65 5.38  
Snow  
Snow 0.00 in 0.00 in 0.00 in (2002)
Month to date snowfall T 0.0  
Since 1 July snowfall 10.1 8.2  
Snow Depth 0.00 in    
Sea Level Pressure  
Sea Level Pressure 29.57 in    
Wind  
Wind Speed 14 mph ()    
Max Wind Speed 29 mph    
Max Gust Speed 37 mph    
Visibility 10.0 miles    
Events      
T = Trace of Precipitation, MM = Missing Value Source: Averaged Metar Reports

Daily Weather History Graph

Daily Weather History Graph

Search for Another Location

Airport or City:

Astronomy

May. 22, 2019 Rise Set
Actual Time 6:42 AM CDT 8:46 PM CDT
Civil Twilight 6:14 AM CDT 9:14 PM CDT
Nautical Twilight 5:40 AM CDT 9:48 PM CDT
Astronomical Twilight 5:03 AM CDT 10:24 PM CDT
Moon No Moon Rise 9:54 AM CDT (5/22)
Length of Visible Light 14h 59m
Length of Day
14h 03m
Waning Gibbous, 85% of the Moon is Illuminated
May 22
Waning Gibbous
May 26
Last Quarter
Jun 3
New
Jun 10
First Quarter
Jun 17
Full

Hourly Weather History & Observations

Time (CDT) Temp. Dew Point Humidity Pressure Visibility Wind Dir Wind Speed Gust Speed Precip Events Conditions
12:53 AM 64.0 °F 21.9 °F 20% 29.53 in 10.0 mi SSW 10.4 mph - N/A   Partly Cloudy
1:53 AM 62.1 °F 24.1 °F 23% 29.52 in 10.0 mi South 12.7 mph - N/A   Clear
2:53 AM 62.1 °F 28.0 °F 28% 29.53 in 10.0 mi South 16.1 mph - N/A   Partly Cloudy
3:53 AM 61.0 °F 30.9 °F 32% 29.52 in 10.0 mi South 16.1 mph - N/A   Partly Cloudy
4:53 AM 63.0 °F 39.0 °F 41% 29.52 in 10.0 mi SSW 16.1 mph - N/A   Partly Cloudy
5:53 AM 63.0 °F 39.9 °F 43% 29.52 in 10.0 mi South 15.0 mph - N/A   Clear
6:53 AM 60.1 °F 39.9 °F 47% 29.55 in 10.0 mi SSW 12.7 mph - N/A   Partly Cloudy
8:53 AM 68.0 °F 43.0 °F 40% 29.58 in 10.0 mi SW 16.1 mph 26.5 mph N/A   Scattered Clouds
9:53 AM 73.0 °F 39.9 °F 30% 29.60 in 10.0 mi SW 11.5 mph - N/A   Scattered Clouds
10:53 AM 80.1 °F 30.0 °F 16% 29.58 in 10.0 mi SW 19.6 mph - N/A   Partly Cloudy
11:53 AM 84.0 °F 25.0 °F 12% 29.59 in 10.0 mi WSW 21.9 mph 31.1 mph N/A   Partly Cloudy
12:53 PM 88.0 °F 17.1 °F 7% 29.57 in 10.0 mi SSW 24.2 mph 32.2 mph N/A   Partly Cloudy
1:53 PM 90.0 °F 19.0 °F 7% 29.57 in 10.0 mi SW 23.0 mph 29.9 mph N/A   Clear
2:53 PM 91.0 °F 19.0 °F 7% 29.55 in 10.0 mi SSW 19.6 mph 31.1 mph N/A   Clear
3:53 PM 91.0 °F 23.0 °F 8% 29.56 in 10.0 mi South 24.2 mph 32.2 mph N/A   Clear
4:53 PM 90.0 °F 26.1 °F 10% 29.56 in 10.0 mi SSW 18.4 mph 35.7 mph N/A   Clear
5:53 PM 90.0 °F 26.1 °F 10% 29.56 in 10.0 mi SSW 23.0 mph 31.1 mph N/A   Partly Cloudy
6:53 PM 89.1 °F 27.0 °F 11% 29.57 in 10.0 mi South 19.6 mph - N/A   Partly Cloudy
7:53 PM 86.0 °F 33.1 °F 15% 29.57 in 10.0 mi South 20.7 mph 27.6 mph N/A   Partly Cloudy
8:53 PM 78.1 °F 46.0 °F 32% 29.61 in 10.0 mi SSE 13.8 mph - N/A   Clear
9:53 PM 75.0 °F 48.9 °F 40% 29.63 in 10.0 mi SE 12.7 mph - N/A   Clear
10:53 PM 73.9 °F 55.9 °F 53% 29.65 in 10.0 mi SSE 15.0 mph - N/A   Clear
11:53 PM 75.0 °F 62.1 °F 64% 29.65 in 10.0 mi SSE 19.6 mph - N/A   Clear